Theta_e
322 322 321 319 318 317 315 314 312 312 311 311 312 313 313 313 312 311 308 306 307 308 309 310 310 308 309 308 306 306 308 309 309 309 310 310 311 312 313 314 315 319 321
320 319 318 317 315 313 312 312 312 313 313 313 313 313 312 310 308 305 304 305 307 309 308 308 307 307 306 305 304 305 306 306 307 305 306 306 308 309 311 312 313 315 319
317 316 314 312 312 311 311 312 312 312 312 312 312 312 310 307 306 304 304 306 306 307 307 308 308 307 307 307 305 305 304 304 304 304 304 304 304 305 307 308 308 309 310
314 311 312 311 311 311 312 312 312 311 311 311 310 310 307 307 306 304 304 305 306 307 307 307 307 307 307 307 307 307 306 305 304 303 303 303 303 304 304 304 305 306 307
311 311 310 311 312 313 312 311 311 310 310 309 309 308 307 307 306 305 305 304 306 306 306 306 307 307 307 308 309 308 307 305 305 304 304 304 304 304 304 304 304 307 306
309 309 311 312 312 312 310 309 309 309 308 309 308 307 307 307 306 305 305 304 305 306 306 307 307 307 307 307 307 307 307 306 306 306 306 305 305 305 304 304 305 306 306
310 311 312 312 311 310 308 308 307 307 307 308 307 307 307 307 306 305 305 305 304 305 306 305 306 307 306 305 306 307 307 305 305 304 305 305 305 305 305 305 305 305 304
311 311 311 310 309 307 306 306 306 307 306 307 307 307 307 306 306 306 305 305 304 304 304 305 306 306 305 305 306 305 304 304 305 305 304 304 304 304 304 304 303 303 302
311 310 310 309 307 306 305 305 306 306 306 306 307 307 308 306 305 304 304 302 302 304 305 306 305 305 305 305 305 304 305 304 303 303 303 302 301 301 302 303 302 302 303
310 309 309 308 307 305 305 305 306 305 306 307 308 309 308 306 305 303 301 302 303 306 307 306 305 304 305 305 304 304 303 304 302 302 301 300 300 300 301 302 303 303 303
309 308 307 307 306 305 305 306 305 306 307 307 307 307 307 305 304 303 302 303 303 305 305 305 304 304 305 305 303 303 304 304 305 304 302 301 300 300 300 301 303 304 304
308 307 307 306 306 306 306 306 306 305 305 304 304 303 303 302 302 303 304 305 304 304 304 305 304 303 303 303 303 305 305 304 304 305 304 303 301 300 301 302 302 304 305
307 307 306 305 306 306 306 306 303 303 304 302 301 300 299 300 299 302 303 303 305 305 305 304 303 303 302 302 303 303 303 302 302 303 305 305 305 303 303 303 304 304 304
307 306 306 305 305 305 306 305 303 302 301 300 298 298 299 298 299 301 303 303 303 304 303 303 303 303 303 303 303 303 303 303 302 303 304 306 307 306 304 303 303 304 304
306 306 305 305 304 304 305 304 303 301 301 300 298 297 297 298 299 301 302 302 302 302 303 303 302 302 302 302 301 301 302 302 302 302 303 305 307 308 308 306 305 305 305
305 304 304 304 304 305 305 302 302 301 300 300 298 298 299 299 299 301 302 301 301 301 302 302 300 300 299 299 298 299 299 300 299 300 302 305 308 309 310 309 308 307 307
303 303 303 303 304 304 304 303 302 300 299 299 297 297 298 299 298 300 300 300 300 300 300 300 298 298 297 296 296 296 296 297 297 298 300 302 307 311 312 311 311 311 310
302 302 302 303 302 303 303 302 300 300 299 297 296 297 298 298 298 298 299 299 299 299 297 297 296 296 295 294 293 294 294 295 295 296 297 300 304 307 314 314 313 312 311
301 301 301 302 302 302 301 300 298 297 297 296 295 296 297 298 299 299 299 299 298 297 294 295 294 293 292 292 291 292 292 292 293 294 295 298 301 307 312 314 313 312 312
300 299 300 301 301 300 298 298 296 295 295 294 293 295 296 298 298 299 299 298 297 295 292 293 292 291 290 290 290 290 290 290 291 293 294 296 300 305 309 311 314 312 312
300 300 300 300 299 298 298 296 295 295 294 294 296 297 297 297 297 298 297 296 296 294 291 290 290 289 288 288 289 289 289 290 291 293 294 297 299 303 305 307 309 313 311
300 300 299 299 298 297 296 295 294 294 295 295 296 297 298 297 296 296 296 295 295 293 291 287 288 287 286 286 287 288 288 290 292 294 295 297 298 300 301 303 305 307 310
299 298 297 297 296 295 294 294 293 294 295 295 295 297 296 295 295 295 295 294 294 292 290 288 285 285 286 286 287 287 288 290 292 293 295 296 297 297 299 300 303 304 303
298 297 296 296 295 295 292 292 293 294 294 294 295 295 294 293 293 293 293 293 291 291 289 288 284 284 284 285 286 288 289 290 291 293 293 295 296 296 297 298 300 300 300
296 295 294 294 294 293 292 293 293 294 294 293 293 293 292 292 292 291 291 290 290 289 288 287 284 283 283 284 285 286 288 289 290 291 292 293 293 295 296 296 298 298 297
295 294 294 294 294 294 294 295 295 294 293 292 291 291 291 290 290 289 289 289 288 287 286 286 284 283 283 284 284 285 286 288 289 291 291 292 292 294 295 295 295 296 295
Wind_Speed
29 24 22 21 20 18 17 17 17 15 15 15 16 16 19 17 19 20 21 22 22 22 23 24 23 24 24 26 29 25 21 21 14 27 26 27 29 30 34 34 32 28 24
26 25 23 20 19 18 17 16 15 16 17 18 18 18 15 16 19 22 20 19 18 21 20 22 23 22 22 25 23 23 21 22 20 22 26 27 26 28 29 28 24 22 19
23 21 19 18 18 16 16 14 14 15 15 16 15 14 12 16 19 20 21 16 17 18 20 22 23 22 24 25 22 22 23 22 24 21 24 26 24 26 28 28 28 28 27
18 18 18 15 14 14 14 15 16 15 16 16 15 12 12 15 20 19 21 19 19 19 19 20 21 22 23 24 27 28 27 28 24 20 21 22 21 24 23 22 28 26 28
19 17 15 16 16 14 14 14 14 14 13 14 14 14 13 15 18 22 23 22 18 19 19 23 24 25 22 26 27 27 27 26 25 22 21 23 22 19 17 22 16 22 24
18 17 15 15 14 14 15 14 13 13 13 10 12 14 15 14 18 21 24 25 20 23 25 26 24 23 27 23 31 35 34 27 25 23 22 21 24 22 20 15 17 16 6
17 15 14 14 16 16 14 12 12 14 13 14 13 13 14 14 19 23 26 26 21 22 21 22 23 26 24 35 33 30 30 28 26 26 23 24 24 20 19 17 11 7 13
17 15 14 14 15 14 14 13 14 13 12 13 13 12 15 14 19 25 28 20 18 19 18 19 23 22 31 29 30 32 30 30 31 31 30 30 28 26 21 17 11 15 18
15 14 13 12 13 12 13 11 14 12 12 10 10 13 13 15 21 28 26 22 25 22 23 24 23 28 26 25 28 29 29 31 33 28 21 19 17 16 14 15 9 5 5
15 13 10 9 10 11 10 9 11 12 11 13 14 13 12 14 22 25 25 26 26 27 27 27 24 26 21 25 27 24 27 31 30 30 29 26 21 17 14 8 6 6 6
15 12 10 11 11 12 10 10 13 12 17 18 17 17 16 18 22 21 21 25 26 24 23 24 26 26 24 27 28 28 27 28 26 28 26 24 23 19 16 10 3 6 9
13 11 10 8 6 7 9 7 11 16 17 16 13 13 14 16 20 22 22 21 22 22 22 23 26 27 28 30 32 30 32 33 27 23 23 23 23 21 16 8 6 12 14
10 9 8 8 9 5 7 9 13 15 15 16 16 16 17 17 22 22 23 23 21 21 19 20 24 28 31 32 31 35 34 30 28 26 23 20 23 17 14 12 12 13 16
8 7 6 10 8 7 10 9 12 15 13 16 16 16 18 22 25 27 26 26 24 22 21 26 28 31 30 30 31 33 34 31 27 26 26 27 25 20 17 13 16 17 13
5 8 9 8 6 7 5 9 12 14 14 16 17 18 17 23 24 22 19 25 23 20 18 23 28 29 30 31 32 31 31 33 32 31 28 27 25 24 20 16 13 12 11
14 12 9 8 6 6 2 10 10 11 11 13 15 17 15 16 18 18 16 17 22 22 27 24 25 26 27 28 29 30 31 33 34 33 31 30 26 21 19 18 12 12 14
8 5 8 6 8 7 8 8 7 6 7 10 12 15 11 13 21 14 13 18 26 29 30 25 24 25 26 27 27 27 29 30 31 33 30 31 32 28 17 17 15 16 15
5 5 3 4 5 7 10 11 8 9 9 9 11 13 10 13 17 21 18 23 30 31 28 26 25 25 26 27 28 28 30 32 34 34 33 31 34 33 23 20 19 11 11
7 1 2 7 3 9 11 9 8 8 7 9 12 15 12 14 16 21 24 25 25 25 27 26 26 26 26 27 28 29 29 31 32 33 31 31 32 31 28 22 22 21 16
2 4 4 10 14 11 10 9 9 8 8 9 12 13 18 19 18 16 20 22 24 24 29 25 25 26 27 28 30 30 31 32 34 37 36 34 34 29 26 27 21 19 18
3 3 5 10 9 7 7 7 7 7 8 9 13 14 16 16 18 21 20 22 23 22 28 25 25 28 29 30 31 32 34 36 36 37 37 36 33 30 29 28 26 21 23
4 5 6 7 8 8 6 6 6 6 3 5 8 9 13 17 19 19 19 21 21 21 26 28 26 30 32 31 30 31 34 36 37 37 37 34 31 29 28 28 28 28 22
4 8 8 6 6 7 6 5 4 5 7 6 11 11 16 19 20 19 19 19 21 19 24 28 29 29 31 31 30 30 32 35 36 34 34 31 31 32 29 26 26 25 26
8 8 9 7 9 6 8 11 12 11 9 13 16 19 19 20 21 22 20 19 20 22 22 26 29 28 29 31 32 29 28 28 30 29 29 28 32 32 29 29 23 26 26
10 8 8 10 10 10 9 8 6 6 10 17 20 21 21 21 22 22 22 21 21 21 21 23 28 28 29 30 31 31 27 25 26 27 29 29 28 30 29 30 26 25 28
10 11 11 12 10 6 5 3 2 13 15 18 20 20 21 22 22 22 21 22 20 20 20 21 25 27 28 29 30 30 30 27 27 25 28 31 33 28 27 28 28 24 26
Wind_Direction
92 90 86 78 71 67 63 55 46 39 33 30 29 29 31 26 22 16 8 359 359 2 5 5 5 358 356 352 347 342 339 339 315 316 323 326 327 326 320 324 332 311 311
91 88 84 79 72 65 56 51 47 45 42 37 35 36 38 31 23 17 13 7 8 7 10 3 0 359 354 355 356 351 341 335 327 316 321 324 327 325 325 330 345 6 333
89 83 74 65 62 54 50 45 39 36 37 38 32 35 39 36 26 23 17 18 14 7 4 356 352 351 346 340 338 335 334 324 320 313 315 318 319 323 327 332 335 332 334
85 78 78 66 61 59 53 50 46 41 39 42 37 60 48 30 23 17 13 9 9 5 2 358 351 349 343 345 336 331 325 321 313 303 302 307 310 316 322 328 332 335 337
83 79 84 75 67 69 67 54 45 41 40 48 43 43 29 22 19 11 7 2 355 355 355 357 352 350 345 339 338 332 322 310 304 299 296 301 304 311 313 319 319 326 335
81 73 81 76 74 74 66 57 48 46 40 48 42 29 20 10 12 9 3 358 354 347 344 345 347 344 343 340 333 329 328 314 302 293 291 290 289 293 297 305 315 319 325
89 79 80 79 73 71 63 53 48 42 39 52 39 30 23 19 7 3 357 354 356 351 349 345 354 358 355 346 343 342 342 337 326 309 296 293 291 287 292 287 305 329 318
82 78 73 74 71 66 59 49 38 36 38 38 29 33 24 22 7 359 356 8 2 4 20 16 9 360 352 357 353 352 344 342 338 327 312 302 300 299 290 294 287 307 311
89 81 73 74 71 60 51 47 37 30 28 24 21 33 19 20 10 4 7 18 21 31 28 23 6 359 359 3 360 353 350 348 348 354 351 347 338 325 313 300 277 317 307
97 88 76 77 82 70 63 47 29 19 11 1 8 22 38 26 12 7 19 23 23 26 25 14 6 359 5 6 1 350 348 343 347 346 2 11 10 9 1 328 260 282 290
98 89 77 67 80 68 64 45 26 22 21 54 61 53 43 21 7 20 33 32 23 22 12 6 9 14 13 14 15 4 359 353 337 352 359 3 8 13 12 20 16 336 304
90 89 78 74 77 69 61 48 32 41 45 36 32 29 27 18 10 36 42 38 26 18 10 13 358 2 15 20 19 19 12 5 350 339 349 358 2 9 17 17 339 327 314
98 92 78 64 63 59 47 46 62 40 42 32 33 26 14 14 12 26 32 28 28 23 24 12 12 15 13 14 13 12 10 359 356 356 351 340 1 354 356 352 352 342 337
100 86 90 74 59 61 55 77 55 47 48 39 34 25 15 15 17 17 16 22 22 24 24 23 15 13 11 7 4 4 3 0 357 353 346 349 349 353 4 342 342 349 343
88 99 72 62 55 47 57 86 62 62 53 48 48 36 19 15 15 16 23 25 16 14 13 13 11 10 6 6 2 1 0 359 357 353 347 346 346 348 351 357 358 348 334
81 75 66 62 43 31 102 103 75 63 55 42 40 31 34 26 24 29 35 28 33 36 34 26 14 12 7 3 1 357 360 357 354 350 352 352 350 345 352 358 352 336 330
66 80 77 73 28 7 74 124 82 63 60 33 25 18 35 32 30 30 45 53 44 37 32 30 20 13 6 3 1 360 356 354 354 358 353 350 353 350 350 352 355 4 2
76 67 88 22 26 33 101 87 69 65 66 34 9 26 58 53 42 46 60 52 40 37 34 31 22 14 9 4 2 360 358 358 358 358 356 353 354 350 353 10 9 7 7
90 307 327 0 60 87 92 72 70 70 58 43 42 55 68 74 59 48 48 47 42 41 31 32 23 17 11 7 4 2 360 358 359 359 358 355 354 355 358 2 18 17 14
127 39 24 52 93 99 86 63 77 72 69 62 54 55 62 62 49 32 37 50 49 47 37 35 25 20 15 12 11 6 2 3 5 7 3 359 360 356 356 4 11 15 14
155 81 46 86 68 76 66 79 99 87 73 69 77 75 63 47 39 47 64 54 52 50 37 38 28 25 21 19 19 14 8 10 12 12 7 6 3 359 3 4 4 5 16
146 129 103 96 107 103 96 109 108 94 97 50 51 50 47 49 53 60 63 60 58 49 37 36 35 29 27 25 22 19 16 17 17 15 11 11 3 3 5 7 10 11 20
127 132 122 108 119 120 124 128 125 120 113 64 36 78 73 62 55 59 62 66 59 50 35 33 31 28 27 28 28 24 20 20 18 15 11 11 8 7 12 8 14 14 10
137 133 132 137 127 136 117 115 116 113 89 63 73 81 81 70 62 57 65 64 61 55 36 31 28 29 27 27 28 27 26 26 25 24 22 14 17 15 17 12 20 21 15
140 139 140 144 140 131 129 129 120 98 84 83 82 78 71 69 66 60 61 63 58 52 46 26 23 25 26 26 26 27 29 31 32 32 32 30 24 26 22 19 27 23 18
144 148 144 143 142 116 94 199 75 81 100 97 90 83 77 70 66 62 59 59 54 48 41 27 23 24 25 25 24 23 27 32 34 39 34 34 29 29 28 23 23 30 24